Weather reports worldwide

Advertisment
Santiago de Compostela/Labacolla, Spain (8042): temperature & dewpoint: 13.08.2019 00:00:00 - 19.08.2019 00:00:00 (CEST)Santiago de Compostela/Labacolla, Spain (8042): wind speed: 13.08.2019 00:00:00 - 19.08.2019 00:00:00 (CEST)Santiago de Compostela/Labacolla, Spain (8042): wind direction: 13.08.2019 00:00:00 - 19.08.2019 00:00:00 (CEST)Santiago de Compostela/Labacolla, Spain (8042): reduced air pressure: 13.08.2019 00:00:00 - 19.08.2019 00:00:00 (CEST)Santiago de Compostela/Labacolla, Spain (8042): visibility: 13.08.2019 00:00:00 - 19.08.2019 00:00:00 (CEST)
Date & Time tt [°C] td [°C] ff [km/h] ff [kn] dd ppp [hPa] vv [km]
19.08.2019 00:00:00 13,3 11,2 8 4 N 1021,4 30
18.08.2019 23:00:00 13,9 11,4 13 7 N 1020,9 25
18.08.2019 22:00:00 14,2 11,4 15 8 N 1019,9 30
18.08.2019 21:00:00 16,0 11,6 21 11 N 1019,0 30
18.08.2019 20:00:00 17,4 12,0 16 9 N 1018,8 30
18.08.2019 19:00:00 18,3 12,1 16 9 N 1018,1 30
18.08.2019 18:00:00 19,0 12,9 11 6 N 1017,7 30
18.08.2019 17:00:00 19,7 12,6 9 5 N 1017,4 30
18.08.2019 16:00:00 19,3 12,7 13 7 N 1017,3 30
18.08.2019 15:00:00 19,5 13,6 9 5 N 1017,1 25
18.08.2019 14:00:00 18,4 12,3 8 4 N 1017,2 20
18.08.2019 13:00:00 18,2 14,2 13 7 N 1017,3 30
18.08.2019 12:00:00 17,1 14,9 13 7 N 1017,2 17
18.08.2019 11:00:00 15,4 14,5 13 7 N 1016,6 10
18.08.2019 10:00:00 15,0 14,5 16 9 N 1015,9 25
18.08.2019 09:00:00 15,0 15,0 15 8 N 1015,1 15
18.08.2019 08:00:00 15,1 15,1 11 6 N 1014,2 8
18.08.2019 07:00:00 15,4 15,4 18 10 N 1013,6 3,6
18.08.2019 06:00:00 16,5 16,5 24 13 NNW 1013,2 7
18.08.2019 05:00:00 18,3 18,3 18 10 SSW 1012,1 2,0
18.08.2019 04:00:00 18,5 18,2 15 8 SSW 1012,1 3,0
18.08.2019 03:00:00 18,8 18,5 15 8 SSW 1012,5 15
18.08.2019 02:00:00 18,6 18,4 15 8 SSW 1013,2 15
18.08.2019 01:00:00 18,6 18,3 13 7 SSW 1013,5 14
18.08.2019 00:00:00 18,7 18,4 13 7 SW 1014,1 11
17.08.2019 23:00:00 18,7 18,4 13 7 SSW 1014,2 20
17.08.2019 22:00:00 18,8 18,6 15 8 S 1013,8 20
17.08.2019 21:00:00 18,9 18,6 13 7 SSW 1014,1 21
17.08.2019 20:00:00 18,9 18,9 18 10 SW 1014,6 6
17.08.2019 19:00:00 19,5 19,0 22 12 SW 1014,7 4,2
17.08.2019 18:00:00 21,6 19,0 16 9 SW 1014,6 30
17.08.2019 17:00:00 22,6 19,7 15 8 SW 1014,6 40
17.08.2019 16:00:00 22,1 19,5 13 7 SW 1014,9 30
17.08.2019 15:00:00 21,4 19,2 15 8 SSW 1015,5 40
17.08.2019 14:00:00 20,7 18,6 15 8 SSW 1016,0 40
17.08.2019 13:00:00 20,4 18,3 15 8 SSW 1016,3 11
17.08.2019 12:00:00 19,8 17,8 11 6 SSW 1016,4 16
17.08.2019 11:00:00 19,3 17,6 15 8 S 1016,6 40
17.08.2019 10:00:00 18,5 17,2 13 7 S 1016,9 30
17.08.2019 09:00:00 17,8 17,7 11 6 S 1016,8 8
17.08.2019 08:00:00 17,5 17,0 11 6 S 1017,0 25
17.08.2019 07:00:00 17,4 16,9 11 6 S 1017,0 17
17.08.2019 06:00:00 17,3 16,8 11 6 SSW 1017,3 23
17.08.2019 05:00:00 17,4 16,9 9 5 S 1017,2 20
17.08.2019 04:00:00 17,5 17,0 8 4 S 1017,8 20
17.08.2019 03:00:00 17,5 17,1 8 4 SSW 1018,2 15
17.08.2019 02:00:00 17,4 17,2 9 5 S 1018,5 20
17.08.2019 01:00:00 17,6 17,3 9 5 SSW 1018,7 11
17.08.2019 00:00:00 17,8 17,3 8 4 SSW 1019,1 30
16.08.2019 23:00:00 17,9 16,6 5 3 W 1019,3 30
16.08.2019 22:00:00 18,1 16,8 9 5 W 1018,7 30
16.08.2019 21:00:00 19,5 17,1 9 5 SW 1018,1 30
16.08.2019 20:00:00 21,4 16,9 15 8 W 1017,8 40
16.08.2019 19:00:00 23,5 18,4 15 8 WSW 1017,4 30
16.08.2019 18:00:00 24,0 17,9 15 8 W 1017,6 30
16.08.2019 17:00:00 25,3 17,7 15 8 W 1017,5 40
16.08.2019 16:00:00 25,2 18,3 13 7 WSW 1018,0 29
16.08.2019 15:00:00 24,5 17,2 9 5 W 1018,2 40
16.08.2019 14:00:00 23,5 14,9 11 6 W 1018,5 40
16.08.2019 13:00:00 22,3 17,0 11 6 S 1018,7 30
16.08.2019 12:00:00 19,7 15,8 5 3 WNW 1019,6 30
16.08.2019 11:00:00 17,9 14,0 5 3 NNW 1019,7 8
16.08.2019 10:00:00 14,1 13,3 4 2 WNW 1020,4 14
16.08.2019 09:00:00 13,4 13,1 4 2 WNW 1020,4 12
16.08.2019 08:00:00 12,2 12,2 8 4 WNW 1020,5 2,0
16.08.2019 07:00:00 11,8 11,6 8 4 WNW 1020,6 7
16.08.2019 06:00:00 11,4 11,1 11 6 WNW 1020,6 10
16.08.2019 05:00:00 13,5 12,1 0 0 N 1020,4 20
16.08.2019 04:00:00 13,2 11,9 2 1 NW 1021,0 19
16.08.2019 03:00:00 13,0 12,2 8 4 NW 1021,3 15
16.08.2019 02:00:00 13,6 12,7 9 5 NW 1021,5 20
16.08.2019 01:00:00 14,6 13,0 11 6 NW 1021,8 24
16.08.2019 00:00:00 14,8 13,1 9 5 NW 1021,9 18
15.08.2019 23:00:00 15,1 13,1 13 7 N 1022,1 30
15.08.2019 22:00:00 17,5 14,2 13 7 N 1021,5 26
15.08.2019 21:00:00 20,3 15,5 15 8 N 1021,0 30
15.08.2019 20:00:00 22,5 16,3 13 7 N 1020,4 30
15.08.2019 19:00:00 23,9 16,9 11 6 N 1020,0 30
15.08.2019 18:00:00 24,4 16,5 13 7 N 1020,3 30
15.08.2019 17:00:00 24,5 15,9 15 8 N 1020,6 30
15.08.2019 16:00:00 24,2 16,6 13 7 N 1021,1 27
15.08.2019 15:00:00 24,1 15,1 8 4 NNE 1021,3 30
15.08.2019 14:00:00 22,6 15,9 8 4 NNE 1021,7 30
15.08.2019 13:00:00 21,4 14,7 8 4 NNE 1022,2 30
15.08.2019 12:00:00 19,7 14,6 11 6 N 1022,4 30
15.08.2019 11:00:00 17,9 14,7 5 3 NNE 1022,7 30
15.08.2019 10:00:00 16,1 14,4 4 2 NNE 1022,9 18
15.08.2019 09:00:00 13,8 13,5 0 0 N 1023,1 9
15.08.2019 08:00:00 12,8 12,8 2 1 E 1023,2 9
15.08.2019 07:00:00 13,5 13,3 2 1 NNE 1023,1 6
15.08.2019 06:00:00 13,8 13,6 8 4 N 1023,2 8
15.08.2019 05:00:00 13,5 13,2 4 2 NNE 1023,2 3,0
15.08.2019 04:00:00 13,9 13,7 5 3 N 1023,5 7
15.08.2019 03:00:00 14,2 13,7 5 3 N 1023,7 12
15.08.2019 02:00:00 14,9 14,3 9 5 N 1023,9 25
15.08.2019 01:00:00 15,4 15,0 11 6 N 1023,4 30
15.08.2019 00:00:00 15,9 15,5 13 7 NNW 1023,2 20
14.08.2019 23:00:00 16,7 15,7 11 6 N 1022,9 30
14.08.2019 22:00:00 18,2 16,5 11 6 N 1022,1 30
14.08.2019 21:00:00 20,8 17,5 11 6 N 1021,4 30
14.08.2019 20:00:00 23,3 16,9 15 8 NW 1020,7 30
14.08.2019 19:00:00 23,8 18,9 9 5 WNW 1020,7 30
14.08.2019 18:00:00 23,6 18,1 11 6 NW 1020,8 30
14.08.2019 17:00:00 21,8 18,7 11 6 W 1021,4 25
14.08.2019 16:00:00 21,4 18,6 9 5 WNW 1021,6 30
14.08.2019 15:00:00 21,4 18,1 13 7 W 1021,8 25
14.08.2019 14:00:00 21,0 17,7 8 4 WSW 1021,8 25
14.08.2019 13:00:00 20,4 17,3 11 6 SSW 1021,8 30
14.08.2019 12:00:00 17,7 15,7 9 5 S 1022,4 30
14.08.2019 11:00:00 16,4 13,6 5 3 S 1022,3 30
14.08.2019 10:00:00 14,7 13,4 9 5 S 1022,2 30
14.08.2019 09:00:00 13,8 13,2 9 5 S 1022,2 15
14.08.2019 08:00:00 13,2 13,2 4 2 S 1021,8 20
14.08.2019 07:00:00 12,4 12,4 4 2 SSE 1021,8 4,5
14.08.2019 06:00:00 12,9 12,9 2 1 S 1021,9 6
14.08.2019 05:00:00 12,5 12,3 8 4 SSE 1022,1 15
14.08.2019 04:00:00 12,8 12,6 0 0 N 1022,7 13
14.08.2019 03:00:00 12,8 12,3 5 3 NW 1022,7 14
14.08.2019 02:00:00 13,5 12,9 2 1 SE 1022,4 20
14.08.2019 01:00:00 13,7 13,1 0 0 N 1022,7 18
14.08.2019 00:00:00 13,9 12,8 0 0 N 1022,9 23
13.08.2019 23:00:00 14,9 12,9 9 5 N 1023,0 30
13.08.2019 22:00:00 16,1 13,6 13 7 N 1022,4 30
13.08.2019 21:00:00 18,0 14,1 13 7 N 1021,8 30
13.08.2019 20:00:00 20,0 14,6 16 9 N 1021,2 30
13.08.2019 19:00:00 21,6 15,4 15 8 N 1020,8 30
13.08.2019 18:00:00 22,8 13,6 13 7 N 1020,6 30
13.08.2019 17:00:00 22,6 12,5 11 6 NW 1020,7 30
13.08.2019 16:00:00 22,7 14,0 5 3 N 1021,0 30
13.08.2019 15:00:00 22,0 13,7 5 3 N 1021,6 30
13.08.2019 14:00:00 21,3 13,7 5 3 SE 1022,0 30
13.08.2019 13:00:00 19,7 12,5 5 3 E 1022,1 30
13.08.2019 12:00:00 - - - - - - -
13.08.2019 11:00:00 - - - - - - -
13.08.2019 10:00:00 13,2 11,3 5 3 NNE 1023,9 30
13.08.2019 09:00:00 10,7 9,8 4 2 NNE 1024,2 30
13.08.2019 08:00:00 10,0 9,4 2 1 N 1023,9 18
13.08.2019 07:00:00 9,6 9,0 5 3 NNW 1024,0 23
13.08.2019 06:00:00 10,1 9,5 0 0 N 1023,6 24
13.08.2019 05:00:00 10,0 9,2 9 5 NW 1023,9 20
13.08.2019 04:00:00 10,6 9,8 4 2 N 1024,1 23
13.08.2019 03:00:00 9,9 9,1 8 4 NNW 1025,0 23
13.08.2019 02:00:00 10,2 9,6 8 4 NNW 1025,6 17
13.08.2019 01:00:00 11,8 10,7 4 2 N 1025,5 24
13.08.2019 00:00:00 12,6 11,0 4 2 NNE 1025,4 30

tt = temperature
td = dewpoint
ff = wind speed
dd = wind direction
ppp = reduced air pressure
vv = visibility

Next stations